Location: Ambatomena
(18.9000°S, 47.5167°E)
Time: 04:46:58
(UTC+00:00)

Daily predictions for brighter satellites

Satellite Brightness Start Highest point End
(mag) Time Altitude Azimuth Time Altitude Azimuth Time Altitude Azimuth
Envisat 4.4 01:05:36 10° NE 01:10:11 35° ESE 01:12:45 22° SSE
Atlas Centaur 2 3.2 01:12:27 52° SSW 01:14:03 59° SSE 01:22:28 10° E
ADEOS 3.7 01:09:13 10° NNE 01:14:24 70° ESE 01:14:32 70° ESE
CCE 1 Rocket 4.5 01:13:56 57° NNW 01:14:56 66° NNE 01:19:32 10° ESE
Meteor 1-27 Rocket 3.5 01:24:20 10° N 01:29:51 89° WSW 01:35:29 10° S
FUSE 4.4 01:32:24 47° S 01:32:35 47° S 01:37:43 10° E
Hubble Space Telescope 2.4 01:34:23 26° SSE 01:34:23 26° SSE 01:37:16 10° ESE
Cosmos 1340 Rocket 4.5 01:34:24 13° SSE 01:37:33 34° E 01:41:16 10° NNE
CZ-3 R/B 3.4 01:22:57 33° WSW 01:38:02 89° SSE 01:46:26 10° ENE
GPS 2-12 Rocket1 3.8 01:41:02 39° NW 01:41:38 41° NNW 01:46:11 10° NE
USA 276 3.9 01:43:50 26° N 01:43:50 26° N 01:45:28 10° NNE
Cosmos 489 Rocket 4.4 01:40:16 22° SSW 01:44:29 86° ESE 01:50:40 10° NNE
SL-27 R/B 3.1 01:48:03 42° N 01:48:03 42° N 01:50:20 10° N
YAOGAN 6 2.4 01:48:04 10° N 01:51:21 69° NW 01:51:21 69° NW
Nadezhda 1 Rocket 4.4 01:45:21 10° N 01:51:38 65° E 01:58:00 10° SSE
Meteor PRIRODA 3.7 01:48:10 10° NNE 01:51:53 77° ESE 01:53:20 35° S
USA 281 3.6 01:49:58 10° S 01:55:57 38° WSW 02:01:54 10° NW
MOS 1 Rocket 3.1 01:51:32 10° SSE 01:56:11 88° ENE 02:00:32 10° N
Okean 1 4.3 01:52:34 10° NNE 01:56:27 48° E 02:00:24 10° SSE
NOSS 2-1 (C) 4.1 01:54:36 28° SW 01:58:02 67° WNW 02:02:47 10° NNE
Cosmos 1515 3.7 01:56:54 10° N 02:00:40 80° E 02:04:28 10° S
OAO 3 Copernicus 4.3 01:59:00 36° SW 02:01:07 78° SSE 02:06:12 10° ENE
Cosmos 1833 4.3 02:00:46 27° SW 02:03:40 54° WNW 02:09:10 10° N
NOSS 2-1 (D) 4.3 02:01:37 25° SW 02:05:10 56° WNW 02:09:50 10° N
Palapa 6 Rocket 3.8 02:02:49 30° WSW 02:05:47 59° S 02:10:57 10° E
Milstar 3 3.1 02:01:49 28° WSW 02:05:51 85° NNW 02:15:52 10° ENE
Cosmos 1707 Rocket 3.4 02:03:56 10° N 02:08:14 71° W 02:12:35 10° S
Cosmos 1048 Rocket 4.0 02:06:31 13° SSW 02:11:25 76° WNW 02:16:45 10° N
Cosmos 1869 Rocket 3.4 02:09:58 10° S 02:14:20 82° W 02:18:39 10° N
Fermi 3.8 02:16:06 26° W 02:18:12 62° SSW 02:22:16 10° ESE
deb Chang Zheng 4 3.7 02:15:27 10° NNE 02:19:45 78° ESE 02:24:07 10° S
COSMOS 2455 3.6 02:14:40 10° S 02:20:32 53° ESE 02:26:22 10° NE
SEDSat Delta rocket 4.0 02:16:57 21° WSW 02:21:37 77° NNW 02:27:47 10° ENE
COSMOS 2487 2.6 02:20:41 10° S 02:24:05 69° ESE 02:27:26 10° NNE
Cosmos 1656 3.9 02:20:07 10° NW 02:25:27 46° WSW 02:30:47 10° S
CZ-4B R/B 3.9 02:24:53 10° NNW 02:28:45 30° W 02:31:53 14° SW
ASTRO E2 3.1 02:25:56 10° NW 02:29:53 63° NNE 02:33:49 10° ESE
Cosmos 1939 Rocket 4.1 02:28:09 10° NNE 02:32:06 45° ESE 02:36:06 10° S
Landsat 5 3.3 02:29:26 10° S 02:33:27 59° WSW 02:37:17 10° NNW
Cosmos 494 Rocket 4.1 02:31:40 10° SSW 02:36:50 55° WNW 02:41:55 10° N
Cosmos 1697 Rocket 2.7 02:31:20 10° NNW 02:37:00 85° WSW 02:42:42 10° SSE
Aurora 2 Rocket 2.0 02:37:17 16° WSW 02:39:35 53° SSE 02:42:50 10° E
Cosmos 2074 Rocket 4.2 02:35:51 10° SSW 02:41:58 53° W 02:48:03 10° NNW
NOAA 12 4.1 02:37:26 10° N 02:42:41 64° WNW 02:47:58 10° SSW
CZ-2C R/B 3.3 02:39:35 10° NNE 02:44:21 64° ESE 02:49:05 10° S
AQUARIUS 4.1 02:43:08 10° N 02:47:37 80° W 02:52:09 10° SSW
CZ-4B R/B 4.2 02:45:57 10° SE 02:48:34 22° E 02:51:06 10° NNE
NOSS 3-2 (A) 4.4 02:47:51 10° NNW 02:56:44 89° WSW 03:05:10 10° SSE
PAYLOAD B 4.3 02:57:10 10° N 03:02:40 63° WNW 03:08:13 10° SSW
Radarsat Rocket 4.3 02:56:23 10° N 03:03:06 61° WNW 03:09:10 10° SSW
Atlas Centaur 2 3.4 02:55:44 10° WSW 03:04:10 63° NNW 03:12:13 10° NE
